Location: ???????
(54.9996°N, 37.9529°E)
Time: 19:06:26
(UTC+00:00)

Okean 1 - Pass Details

Date: 14 April 2024
Orbit: 507 x 529 km, 82.5° (Epoch: 26 May)

Event Time Altitude Azimuth Distance (km) Brightness Sun altitude
Exits shadow 23:25:51 11° 128° (SE) 1,651 5.7 -21.0°
Drops below altitude 10° 23:30:56 10° 41° (NE) 1,740 7.0 -20.6°
Enters shadow 00:27:55 -66° 192° (SSW) 12,238 10.1 -15.4°
Maximum altitude 01:03:43 51° 286° (WNW) 653 3.4 -11.4°
